Date,TemperatureHighF,TemperatureAvgF,TemperatureLowF,DewpointHighF,DewpointAvgF,DewpointLowF,HumidityHigh,HumidityAvg,HumidityLow,PressureMaxIn,PressureMinIn,WindSpeedMaxMPH,WindSpeedAvgMPH,GustSpeedMaxMPH,PrecipitationSumIn
2013-1-2,34.7,32.4,30.2,14.0,13.9,13.0,51,47,42,30.04,30.01,8,4,15,0.00
2013-1-7,47.6,45.9,43.8,23.0,22.5,22.0,42,40,37,30.37,30.32,5,1,8,0.00
2013-1-8,50.1,46.8,40.0,33.0,31.9,30.0,68,57,52,30.42,30.33,8,3,12,0.00
2013-1-9,49.3,48.4,47.6,38.0,35.9,35.0,65,62,59,30.30,30.13,6,3,10,0.00
2013-1-10,50.0,49.2,48.4,24.0,24.0,24.0,38,37,37,30.47,30.45,5,3,13,0.00
2013-1-11,45.5,44.4,43.1,37.0,34.7,32.0,72,68,65,30.40,30.31,4,2,6,0.00
2013-1-12,47.3,46.6,45.7,44.0,43.7,43.0,91,89,88,30.14,30.12,5,2,6,0.00
2013-1-14,57.4,55.5,53.0,52.0,44.9,36.0,93,69,50,30.16,30.05,8,2,11,0.00
2013-1-15,37.8,37.7,37.6,27.0,27.0,27.0,66,65,65,30.33,30.33,5,4,9,0.00
2013-1-16,37.0,10.2,35.3,34.0,-61.8,-99.9,93,26,89,29.94,29.81,3,-713,5,0.12
2013-1-17,45.7,21.3,39.9,29.0,-35.8,-99.9,65,29,53,30.06,29.90,7,-498,14,0.00
2013-1-18,32.1,30.3,29.2,13.0,7.3,4.0,49,38,31,30.48,30.40,11,2,13,0.00
2013-1-19,52.7,27.8,30.0,29.0,-13.7,-99.9,68,37,37,30.40,30.05,9,-297,18,0.00
2013-1-22,23.8,19.7,14.9,5.0,-1.8,-7.0,61,39,30,30.20,30.00,12,5,19,0.00
2013-1-23,20.9,13.3,12.5,0.0,-24.0,-99.9,56,33,33,30.25,30.16,11,-218,17,0.00
2013-1-24,25.0,13.7,15.1,3.0,-32.3,-99.9,59,28,30,30.26,30.12,10,-320,21,0.00
2013-1-25,23.1,22.8,22.6,6.0,6.0,6.0,48,48,48,30.32,30.30,5,2,5,0.00
2013-3-7,37.7,35.2,33.9,33.0,32.3,31.0,90,88,83,30.07,30.04,6,2,11,0.16
2013-3-8,42.7,29.0,31.9,34.0,2.1,-99.9,93,62,59,30.17,29.99,10,-219,15,0.56
2013-3-9,57.4,41.3,36.8,34.0,8.0,-99.9,77,37,22,30.31,30.16,5,-123,14,0.00
2013-3-10,47.9,35.3,36.1,36.0,12.8,-99.9,87,62,58,30.38,30.30,7,-157,9,0.00
2013-3-11,53.8,39.9,39.9,46.0,19.6,-99.9,91,69,70,30.32,30.09,8,-157,14,0.00
2013-3-12,56.5,37.1,46.6,54.0,7.4,-99.9,94,65,74,30.09,29.66,12,-271,25,0.63
2013-3-13,51.2,32.4,40.5,32.0,-10.3,-99.9,69,35,34,29.88,29.78,9,-294,13,0.00
2013-3-14,42.3,31.3,30.5,26.0,-3.8,-99.9,61,34,24,29.95,29.84,13,-144,22,0.00
2013-3-15,48.0,34.4,31.2,31.0,2.6,-99.9,60,39,34,29.97,29.70,13,-148,15,0.00
2013-3-16,43.0,30.8,33.7,31.0,7.1,-99.9,89,59,48,29.90,29.77,5,-156,14,0.06
2013-3-17,38.8,27.4,30.8,29.0,-10.2,-99.9,79,37,35,30.29,29.90,7,-232,15,0.01
2013-3-18,36.9,29.3,28.9,32.0,6.4,-99.9,93,55,37,30.40,30.01,8,-114,16,0.00
2013-3-19,45.9,30.9,33.9,37.0,3.9,-99.9,93,62,64,30.00,29.69,11,-223,14,0.47
2013-3-20,47.5,35.0,33.5,28.0,2.2,-99.9,66,37,29,29.88,29.78,13,-145,17,0.00
2013-3-21,40.5,31.3,32.8,26.0,1.3,-99.9,76,41,34,29.83,29.62,9,-131,16,0.00
2013-3-22,41.7,34.0,30.3,23.0,8.2,-99.9,63,42,37,29.87,29.72,9,-76,16,0.00
2013-3-23,46.6,36.0,34.2,23.0,6.2,-99.9,60,40,33,29.93,29.81,16,-112,19,0.00
2013-3-24,47.8,36.1,34.5,27.0,6.6,-99.9,58,41,36,29.94,29.70,11,-127,13,0.00
2013-3-25,40.4,32.4,36.7,35.0,10.0,-99.9,90,63,59,29.70,29.46,11,-157,17,0.21
2013-3-26,53.7,37.0,38.4,31.0,1.2,-99.9,70,39,32,29.85,29.57,7,-204,13,0.00
2013-3-27,54.3,40.2,39.3,32.0,8.5,-99.9,61,40,28,29.96,29.85,8,-136,18,0.00
2013-3-28,50.8,38.7,39.7,35.0,11.2,-99.9,68,48,44,30.10,29.95,10,-147,13,0.00
2013-3-29,57.2,40.1,42.9,31.0,3.8,-99.9,61,37,31,30.13,30.04,6,-190,13,0.00
2013-3-30,61.6,44.7,43.0,36.0,12.9,-99.9,65,40,20,30.16,30.05,8,-121,11,0.00
2013-3-31,54.5,42.4,43.9,44.0,15.9,-99.9,93,52,36,30.11,29.66,9,-142,18,0.16
2013-4-1,64.4,41.4,39.3,45.0,10.9,-99.9,93,50,33,29.90,29.61,8,-187,21,0.01
2013-4-2,44.9,36.0,34.5,17.0,2.0,-99.9,47,31,24,30.07,29.90,12,-95,20,0.00
2013-4-3,48.1,35.6,34.3,15.0,-1.8,-99.9,44,28,22,30.28,30.08,13,-118,19,0.00
2013-4-4,52.7,36.3,35.1,32.0,2.9,-99.9,61,37,30,30.38,30.08,14,-154,16,0.00
2013-4-5,64.7,47.1,41.2,33.0,12.5,-99.9,65,34,17,30.07,29.69,9,-89,21,0.00
2013-4-6,54.6,37.1,36.6,30.0,-2.1,-99.9,62,30,16,30.31,29.98,9,-162,19,0.00
2013-4-7,54.2,42.7,40.8,44.0,17.8,-99.9,77,54,47,30.30,30.00,14,-141,20,0.00
2013-4-8,74.2,53.6,49.7,47.0,28.2,-99.9,83,52,33,30.06,29.96,10,-109,10,0.00
2013-4-9,84.5,61.7,51.1,53.0,26.8,-99.9,85,40,17,29.99,29.89,8,-120,23,0.00
2013-4-10,74.6,54.0,56.0,56.0,26.3,-99.9,92,52,44,29.97,29.80,9,-155,14,0.54
2013-4-11,61.1,48.5,48.2,57.0,30.6,-99.9,93,69,65,30.04,29.76,11,-117,14,0.03
2013-4-12,48.6,35.2,41.5,41.0,13.8,-99.9,93,72,68,30.02,29.70,14,-184,18,0.60
2013-4-13,57.9,42.5,41.3,44.0,17.3,-99.9,92,57,41,29.97,29.74,7,-153,12,0.03
2013-4-14,59.4,48.3,48.2,45.0,19.7,-99.9,83,43,29,30.21,29.96,12,-98,15,0.00
2013-4-15,56.8,41.9,45.6,41.0,10.7,-99.9,79,44,40,30.37,30.22,6,-163,11,0.00
2013-4-16,62.3,49.0,47.1,53.0,28.4,-99.9,81,64,68,30.37,30.11,14,-134,21,0.00
2013-4-17,72.5,55.1,56.0,55.0,26.1,-99.9,79,47,30,30.29,30.10,6,-127,11,0.00
2013-4-18,59.2,47.3,51.2,52.0,23.3,-99.9,93,58,47,30.34,30.10,10,-145,15,0.00
2013-4-19,70.5,49.8,53.4,61.0,24.9,-99.9,96,66,69,30.09,29.64,12,-206,18,0.03
2013-4-20,64.5,49.6,48.3,61.0,20.1,-99.9,89,43,28,30.28,29.66,13,-102,17,0.08
2013-4-21,55.2,43.3,38.5,33.0,14.6,-99.9,60,38,25,30.61,30.29,11,-70,15,0.00
2013-4-22,54.0,41.7,41.9,36.0,14.2,-99.9,70,47,37,30.66,30.48,14,-133,17,0.00
2013-4-23,53.4,40.1,41.2,42.0,18.0,-99.9,86,61,62,30.48,30.10,10,-143,15,0.00
2013-4-24,66.4,50.7,44.5,50.0,34.4,-99.9,88,66,49,30.10,29.83,8,-72,12,0.00
2013-4-25,67.5,50.6,47.5,53.0,15.6,-99.9,87,37,17,30.26,29.86,11,-122,15,0.00
2013-4-26,68.1,54.7,49.9,37.0,20.3,-99.9,57,34,17,30.38,30.25,8,-89,11,0.00
2013-4-27,70.5,57.1,50.6,34.0,19.2,-99.9,44,28,18,30.42,30.28,6,-73,11,0.00
2013-4-28,68.2,63.5,57.2,44.0,38.7,30.0,49,41,28,30.30,30.20,4,2,12,0.00
2013-4-29,56.1,41.2,54.5,47.0,8.2,-99.9,73,52,66,30.23,30.20,6,-259,10,0.00
2013-4-30,66.6,59.6,53.0,29.0,24.8,21.0,39,27,18,30.33,30.28,7,3,10,0.00
2013-5-1,67.1,50.1,49.5,46.0,20.5,-99.9,71,45,31,30.48,30.32,8,-135,13,0.00
2013-5-2,69.6,53.1,49.1,47.0,23.6,-99.9,85,45,38,30.46,30.32,8,-134,11,0.00
2013-5-3,64.3,48.5,49.9,45.0,21.5,-99.9,81,50,39,30.45,30.36,10,-136,14,0.00
2013-5-4,67.4,48.8,48.5,46.0,24.8,-99.9,82,55,40,30.37,30.25,8,-124,13,0.00
2013-5-5,61.0,27.0,46.5,44.0,-28.5,-99.9,77,32,46,30.29,30.22,8,-488,12,0.00
2013-5-6,67.6,42.7,48.8,52.0,6.7,-99.9,83,49,55,30.27,30.15,6,-280,10,0.00
2013-5-7,73.3,57.4,53.0,60.0,39.6,-99.9,86,66,58,30.16,30.08,7,-92,11,0.00
2013-5-8,63.5,49.8,56.0,60.0,30.0,-99.9,95,73,81,30.10,29.97,9,-167,10,1.31
2013-5-9,70.6,55.0,55.2,59.0,39.3,-99.9,95,74,58,30.00,29.88,7,-103,9,0.42
2013-5-10,82.2,61.9,58.5,58.0,40.0,-99.9,88,59,40,29.99,29.88,8,-103,14,0.00
2013-5-11,70.9,57.6,62.8,63.0,42.6,-99.9,92,77,71,29.89,29.68,11,-113,12,0.67
2013-5-12,71.3,54.4,53.3,62.0,19.4,-99.9,92,39,21,29.93,29.64,17,-142,22,0.01
2013-5-13,59.5,46.0,47.8,33.0,10.7,-99.9,56,34,27,30.09,29.93,10,-134,17,0.00
2013-5-14,64.0,50.1,44.6,38.0,15.3,-99.9,62,34,19,30.12,30.00,8,-93,13,0.00
2013-5-15,69.9,53.8,52.6,59.0,28.4,-99.9,74,52,43,30.06,29.67,7,-129,17,0.00
2013-5-16,80.2,63.5,65.5,58.0,31.9,-99.9,74,42,32,29.81,29.70,8,-123,16,0.00
2013-5-17,77.3,59.5,60.7,43.0,21.7,-99.9,49,32,27,30.19,29.82,7,-134,12,0.00
2013-5-18,66.3,52.0,58.4,55.0,26.6,-99.9,79,57,44,30.30,30.19,5,-157,8,0.00
2013-5-19,59.3,31.1,56.4,57.0,-15.8,-99.9,95,50,70,30.32,30.17,8,-456,14,0.45
2013-5-20,82.7,53.5,59.5,67.0,19.8,-99.9,97,54,58,30.17,29.95,7,-269,11,0.00
2013-5-21,88.5,71.3,68.2,70.0,51.6,-99.9,91,63,52,29.96,29.82,13,-93,13,0.00
2013-5-22,79.0,59.0,59.0,69.0,35.7,-99.9,91,65,70,29.93,29.82,4,-176,11,0.00
2013-5-23,82.1,62.6,64.0,69.0,45.5,-99.9,92,73,59,29.89,29.75,11,-118,16,1.02
2013-5-24,67.5,38.6,47.5,63.0,3.0,-99.9,93,57,74,29.93,29.66,10,-324,17,0.24
2013-5-25,55.4,37.2,46.7,45.0,2.2,-99.9,87,50,57,29.99,29.88,12,-278,20,0.10
2013-5-26,68.8,55.6,48.8,41.0,28.3,-99.9,68,43,29,30.19,29.94,16,-59,20,0.00
2013-5-27,77.0,60.7,53.0,42.0,24.7,-99.9,50,32,23,30.24,30.10,8,-93,13,0.00
2013-5-28,72.4,53.5,57.2,57.0,30.7,-99.9,94,62,38,30.22,30.12,5,-136,9,0.54
2013-5-29,85.6,59.6,58.2,68.0,31.5,-99.9,96,58,55,30.12,29.99,6,-197,9,0.00
2013-5-30,94.8,74.6,73.5,68.0,42.7,-99.9,80,44,34,30.11,30.04,5,-134,12,0.00
2013-5-31,94.5,74.9,75.8,70.0,43.1,-99.9,72,44,37,30.11,29.97,11,-133,13,0.00
2013-6-1,92.9,72.7,74.6,69.0,44.3,-99.9,76,50,41,30.02,29.89,7,-124,16,0.00
2013-6-2,92.0,71.2,72.9,70.0,43.3,-99.9,83,51,44,29.91,29.76,7,-143,16,0.10
2013-6-3,78.3,64.0,69.5,69.0,46.1,-99.9,92,70,46,29.86,29.79,6,-118,13,0.65
2013-6-4,78.0,62.8,58.7,50.0,29.0,-99.9,56,35,26,30.10,29.87,9,-94,17,0.00
2013-6-5,74.9,59.2,60.3,56.0,26.3,-99.9,83,40,32,30.20,30.09,12,-130,12,0.00
2013-6-6,71.8,57.2,59.3,59.0,36.3,-99.9,90,64,42,30.14,30.01,9,-124,15,0.10
2013-6-7,63.6,40.6,58.8,62.0,5.4,-99.9,98,62,89,30.01,29.62,15,-338,20,2.32
2013-6-8,79.6,53.6,58.8,64.0,16.6,-99.9,88,49,58,30.03,29.56,6,-268,10,0.00
2013-6-9,84.4,69.2,65.4,63.0,46.0,-99.9,83,54,41,30.16,30.04,7,-82,10,0.00
2013-6-10,71.0,58.3,63.0,65.0,42.3,-99.9,96,77,79,30.15,29.82,8,-127,16,1.32
2013-6-11,84.4,56.2,69.5,68.0,19.4,-99.9,92,47,52,29.81,29.60,10,-272,16,0.02
2013-6-12,79.5,66.9,66.6,61.0,40.8,-99.9,72,48,40,29.83,29.69,12,-85,18,0.00
2013-6-13,70.0,53.6,57.1,61.0,31.2,-99.9,92,66,54,29.82,29.45,18,-165,25,1.03
2013-6-14,76.1,53.0,54.3,54.0,28.2,-99.9,92,59,47,29.79,29.50,10,-157,22,0.31
2013-6-17,86.2,80.0,75.0,66.0,63.8,61.0,74,59,44,29.89,29.82,7,2,11,0.06
2013-6-18,86.1,65.4,66.3,68.0,45.8,-99.9,90,66,48,29.89,29.81,7,-114,9,0.22
2013-6-19,79.7,57.0,61.4,63.0,19.5,-99.9,91,40,29,30.16,29.86,11,-207,13,0.01
2013-6-20,80.7,66.3,64.1,58.0,39.0,-99.9,67,47,43,30.26,30.16,10,-98,13,0.00
2013-6-21,83.4,66.7,64.8,57.0,35.7,-99.9,62,41,38,30.30,30.23,12,-112,12,0.00
2013-6-22,85.4,66.6,66.1,63.0,38.5,-99.9,72,47,40,30.25,30.13,8,-116,13,0.00
2013-6-23,89.4,69.8,69.8,72.0,47.0,-99.9,85,59,50,30.18,30.05,10,-117,16,0.00
2013-6-24,97.2,76.5,74.1,72.0,54.0,-99.9,89,58,32,30.07,29.93,7,-84,15,0.00
2013-6-25,95.4,74.0,73.8,71.0,46.7,-99.9,76,51,39,29.99,29.80,9,-123,16,0.00
2013-6-26,89.7,71.2,74.8,71.0,44.2,-99.9,78,53,45,29.84,29.76,6,-137,12,0.00
2013-6-27,88.3,70.0,74.2,72.0,49.6,-99.9,91,65,54,29.81,29.56,15,-121,19,0.13
2013-6-28,88.3,70.5,75.0,71.0,47.8,-99.9,87,60,52,29.56,29.46,10,-123,15,0.00
2013-6-29,85.4,68.2,72.0,72.0,45.8,-99.9,85,62,55,29.69,29.48,10,-133,15,0.00
2013-6-30,86.3,67.2,73.0,74.0,48.0,-99.9,90,70,64,29.90,29.69,6,-135,12,0.01
2013-7-1,78.0,67.5,73.2,73.0,54.9,-99.9,93,81,83,30.05,29.89,8,-93,16,0.79
2013-7-2,85.3,66.8,71.4,74.0,46.8,-99.9,92,69,67,30.17,30.04,8,-145,13,0.06
2013-7-3,86.9,72.4,74.2,76.0,57.7,-99.9,92,74,65,30.24,30.16,10,-86,13,1.03
2013-7-4,93.1,72.6,76.1,75.0,47.8,-99.9,91,59,51,30.24,30.14,12,-143,15,0.00
2013-7-5,94.7,76.5,76.3,74.0,52.5,-99.9,87,57,47,30.21,30.07,9,-113,13,0.00
2013-7-6,96.5,74.0,78.4,75.0,43.7,-99.9,83,50,42,30.13,30.01,8,-162,15,0.00
2013-7-7,97.2,77.3,80.7,74.0,48.3,-99.9,76,49,45,30.05,29.91,8,-135,13,0.00
2013-7-8,93.1,69.4,75.5,71.0,37.7,-99.9,76,48,43,30.03,29.95,12,-177,15,0.00
2013-7-9,92.8,76.3,75.7,72.0,52.9,-99.9,76,55,45,30.06,29.97,9,-93,13,0.01
2013-7-10,90.1,73.5,74.2,76.0,52.3,-99.9,89,62,54,30.00,29.79,8,-114,15,0.14
2013-7-11,87.4,67.7,78.9,73.0,38.4,-99.9,77,52,47,29.91,29.79,7,-175,9,0.00
2013-7-12,79.0,63.5,68.5,69.0,40.9,-99.9,93,63,55,30.09,29.91,11,-145,17,0.40
2013-7-13,79.9,58.0,67.9,74.0,31.7,-99.9,96,67,77,30.27,30.09,6,-230,11,0.02
2013-7-14,94.3,71.5,75.9,75.0,43.8,-99.9,90,55,48,30.32,30.22,6,-165,10,0.00
2013-7-15,97.0,75.1,79.4,73.0,43.8,-99.9,78,47,40,30.23,30.11,6,-161,8,0.00
2013-7-16,96.2,76.8,81.0,72.0,41.8,-99.9,65,40,35,30.18,30.11,10,-145,15,0.00
2013-7-17,99.1,77.0,83.9,71.0,44.3,-99.9,64,43,32,30.17,30.05,7,-144,10,0.00
2013-7-18,101.4,82.0,82.8,74.0,50.8,-99.9,68,44,31,30.06,29.94,6,-115,11,0.00
2013-7-19,100.3,78.5,84.0,77.0,48.2,-99.9,75,49,43,29.96,29.78,13,-153,15,0.00
2013-7-20,95.0,74.0,79.5,76.0,45.4,-99.9,78,52,44,29.82,29.71,12,-152,17,0.10
2013-7-21,89.7,69.4,76.9,72.0,39.9,-99.9,79,50,41,29.95,29.82,7,-156,10,0.00
2013-7-22,84.5,66.8,75.5,75.0,47.3,-99.9,92,71,72,29.94,29.79,7,-147,10,0.23
2013-7-23,90.9,65.6,74.0,75.0,36.8,-99.9,92,57,51,29.78,29.55,7,-200,10,0.11
2013-7-24,85.5,70.8,70.5,69.0,45.0,-99.9,78,52,47,29.91,29.60,8,-114,12,0.00
2013-7-25,70.2,51.9,64.7,58.0,20.9,-99.9,75,52,58,30.04,29.92,8,-215,14,0.00
2013-7-26,85.7,55.3,67.9,66.0,14.1,-99.9,76,40,40,30.04,29.98,6,-290,10,0.00
2013-7-27,84.2,66.8,69.6,67.0,41.8,-99.9,83,57,45,30.05,29.95,7,-134,14,0.00
2013-7-28,79.6,62.6,71.1,70.0,41.1,-99.9,91,68,63,29.98,29.92,7,-160,14,0.18
2013-7-29,88.4,69.5,71.0,70.0,42.1,-99.9,91,52,31,30.09,29.94,8,-120,12,0.01
2013-7-30,83.2,66.1,69.5,57.0,33.2,-99.9,65,41,39,30.16,30.08,7,-144,12,0.00
2013-7-31,85.9,67.8,70.6,64.0,38.5,-99.9,70,46,40,30.15,30.03,7,-127,11,0.00
2013-8-1,77.2,52.3,68.6,68.0,19.0,-99.9,92,56,64,30.04,29.83,6,-276,12,0.64
2013-8-2,87.1,58.7,68.5,65.0,17.2,-99.9,87,38,39,29.90,29.78,10,-272,13,0.00
2013-8-3,80.5,65.3,70.9,67.0,42.3,-99.9,81,59,53,29.91,29.83,7,-127,14,0.03
2013-8-4,81.8,67.1,69.2,64.0,38.0,-99.9,77,45,36,29.95,29.84,8,-112,15,0.00
2013-8-5,80.6,62.9,63.9,57.0,26.3,-99.9,67,37,31,30.04,29.95,8,-140,13,0.00
2013-8-6,82.6,62.8,67.8,61.0,30.6,-99.9,69,45,35,30.12,30.02,9,-165,14,0.00
2013-8-7,81.0,62.2,71.5,68.0,37.0,-99.9,85,59,56,30.14,30.06,9,-164,14,0.00
2013-8-8,81.9,63.6,70.7,74.0,44.0,-99.9,91,72,73,30.07,29.99,7,-156,13,0.54
2013-8-9,87.4,67.7,73.7,76.0,46.1,-99.9,94,67,64,30.01,29.79,11,-154,14,0.00
2013-8-10,87.1,67.5,72.8,72.0,36.3,-99.9,81,46,43,30.04,29.85,8,-156,12,0.00
2013-8-11,84.1,61.7,69.1,66.0,26.1,-99.9,78,41,37,30.11,30.02,5,-194,9,0.00
2013-8-12,85.4,62.9,70.0,69.0,37.6,-99.9,89,61,51,30.03,29.92,5,-176,9,0.00
2013-8-13,81.3,60.6,68.3,72.0,37.4,-99.9,92,66,62,29.92,29.69,5,-180,8,1.11
2013-8-14,75.9,61.5,62.1,65.0,33.6,-99.9,81,47,43,30.04,29.74,15,-118,17,0.00
2013-8-15,80.8,60.7,62.8,58.0,24.9,-99.9,66,38,31,30.14,30.04,6,-163,10,0.00
2013-8-16,83.7,63.6,64.0,58.0,31.3,-99.9,76,43,31,30.20,30.12,7,-144,10,0.00
2013-8-17,83.7,65.5,67.2,58.0,34.4,-99.9,69,44,36,30.26,30.20,5,-136,9,0.00
2013-8-18,78.9,61.2,69.7,62.0,30.8,-99.9,74,48,38,30.25,30.12,6,-167,8,0.00
2013-8-19,81.1,64.7,66.9,66.0,39.5,-99.9,80,55,51,30.12,30.02,7,-134,12,0.00
2013-8-20,90.3,68.9,69.3,69.0,40.6,-99.9,85,52,39,30.12,30.04,7,-148,10,0.00
2013-8-21,91.1,69.9,73.6,69.0,38.8,-99.9,72,47,35,30.17,30.05,7,-156,10,0.00
2013-8-22,82.1,64.4,72.5,72.0,43.6,-99.9,90,69,67,30.06,29.86,5,-156,10,0.38
2013-8-23,84.4,67.0,72.2,71.0,36.4,-99.9,88,46,30,30.08,29.86,8,-138,14,0.00
2013-8-24,80.5,62.4,65.2,60.0,31.7,-99.9,72,45,34,30.34,30.09,7,-144,12,0.00
2013-8-25,84.6,64.4,66.7,60.0,31.3,-99.9,76,43,33,30.38,30.23,6,-155,11,0.00
2013-8-26,85.0,64.5,69.4,69.0,35.4,-99.9,80,50,49,30.23,29.91,7,-165,12,0.03
2013-8-27,88.6,66.9,72.6,69.0,38.1,-99.9,82,53,48,29.90,29.81,6,-174,12,0.00
2013-8-28,87.1,63.4,74.2,71.0,35.9,-99.9,85,59,55,29.89,29.84,5,-197,9,0.08
2013-8-29,81.0,50.5,70.7,68.0,11.0,-99.9,88,49,60,30.02,29.87,7,-331,12,0.00
2013-8-30,87.1,63.2,69.7,71.0,34.8,-99.9,83,56,52,30.02,29.85,6,-194,14,0.00
2013-8-31,87.5,66.9,73.3,74.0,42.6,-99.9,85,62,62,29.86,29.78,7,-166,11,0.00
2013-9-1,85.9,66.2,74.8,73.0,43.8,-99.9,91,66,64,29.85,29.79,8,-164,9,0.00
2013-9-2,83.3,65.8,74.9,74.0,45.2,-99.9,91,70,73,29.80,29.70,6,-159,11,0.07
2013-9-3,83.1,65.6,71.2,72.0,40.0,-99.9,92,57,44,29.88,29.70,5,-146,12,0.26
2013-9-4,84.2,63.4,66.4,60.0,29.4,-99.9,73,44,38,29.99,29.88,8,-163,13,0.00
2013-9-5,80.2,61.3,66.0,60.0,25.6,-99.9,74,39,29,30.14,29.92,9,-166,16,0.00
2013-9-6,74.0,55.3,58.3,49.0,19.4,-99.9,58,37,29,30.25,30.12,8,-168,11,0.00
2013-9-7,81.7,60.2,60.7,57.0,27.2,-99.9,73,43,30,30.12,29.89,7,-158,10,0.00
2013-9-8,83.3,62.9,65.8,64.0,29.6,-99.9,70,42,31,30.06,29.81,7,-159,17,0.00
2013-9-9,72.3,56.2,60.5,60.0,24.7,-99.9,75,45,36,30.24,30.07,10,-168,13,0.00
2013-9-10,89.0,63.6,68.0,73.0,35.7,-99.9,83,57,58,30.16,30.04,8,-196,12,0.00
2013-9-11,94.7,71.1,76.6,76.0,43.3,-99.9,86,55,53,30.11,29.96,11,-172,12,0.00
2013-9-12,86.8,65.5,70.5,73.0,41.7,-99.9,91,63,61,29.98,29.67,7,-168,20,1.12
2013-9-13,78.3,58.1,60.4,67.0,30.2,-99.9,87,54,48,29.84,29.63,7,-175,18,0.00
2013-9-14,67.7,51.5,55.5,49.0,22.5,-99.9,69,49,50,30.12,29.84,8,-164,15,0.00
2013-9-15,74.0,54.9,54.2,56.0,24.7,-99.9,73,47,34,30.21,30.08,7,-155,13,0.00
2013-9-16,69.5,49.1,58.8,58.0,17.3,-99.9,85,53,53,30.23,30.03,11,-236,16,0.04
2013-9-17,66.5,45.0,49.6,46.0,6.3,-99.9,65,38,36,30.43,30.24,9,-237,16,0.00
2013-9-18,72.7,52.1,52.9,52.0,20.3,-99.9,74,45,33,30.34,30.19,5,-174,10,0.00
2013-9-19,78.0,56.2,57.0,57.0,26.7,-99.9,81,50,35,30.19,30.07,6,-164,9,0.00
2013-9-20,79.2,56.1,59.9,60.0,26.7,-99.9,82,54,46,30.08,30.00,8,-194,11,0.00
2013-9-21,77.0,57.9,62.1,67.0,35.1,-99.9,92,66,65,30.01,29.66,13,-173,20,0.10
2013-9-22,70.5,53.5,55.8,67.0,22.0,-99.9,92,49,43,29.91,29.64,8,-173,18,0.66
2013-9-23,67.6,51.1,52.4,45.0,21.6,-99.9,66,46,41,30.04,29.91,7,-145,15,0.00
2013-9-24,75.1,53.3,50.0,45.0,19.8,-99.9,73,41,32,30.05,29.86,7,-163,9,0.00
2013-9-25,73.6,44.1,57.0,47.0,-1.2,-99.9,63,34,34,29.95,29.89,5,-314,10,0.00
2013-10-2,84.5,79.7,74.9,63.0,61.6,60.0,60,54,47,30.00,29.89,6,1,11,0.00
2013-10-3,79.3,60.6,63.6,59.0,28.6,-99.9,81,46,39,30.11,30.00,7,-176,8,0.00
2013-10-4,87.8,60.7,67.8,66.0,30.2,-99.9,87,53,47,30.05,29.96,5,-205,10,0.00
2013-10-5,77.8,55.4,64.3,65.0,30.2,-99.9,90,64,64,30.09,30.01,6,-201,9,0.00
2013-10-6,69.3,37.7,65.1,66.0,-7.4,-99.9,94,52,89,30.10,30.03,9,-436,10,0.00
2013-10-7,76.6,46.0,62.0,69.0,9.2,-99.9,92,55,65,30.03,29.77,13,-327,19,0.33
2013-10-8,68.5,49.3,55.6,49.0,12.5,-99.9,68,39,40,30.32,29.98,8,-217,11,0.00
2013-10-9,63.0,47.9,54.5,49.0,19.0,-99.9,74,53,53,30.39,30.28,14,-191,16,0.00
2013-10-10,63.9,45.6,55.2,56.0,16.1,-99.9,85,59,71,30.27,30.06,13,-239,18,0.00
2013-10-11,67.8,37.6,59.9,59.0,-8.5,-99.9,84,45,72,30.08,30.00,14,-418,18,0.00
2013-10-12,74.0,44.7,60.7,56.0,0.7,-99.9,75,38,26,30.27,30.06,13,-323,19,0.00
2013-10-13,64.9,49.0,56.5,54.0,22.7,-99.9,79,58,63,30.38,30.27,12,-185,14,0.00
2013-10-14,66.8,48.5,52.6,51.0,22.1,-99.9,83,57,49,30.36,30.24,6,-182,7,0.00
2013-10-15,73.1,51.6,53.4,56.0,25.3,-99.9,91,57,44,30.26,30.11,7,-171,9,0.00
2013-10-16,67.1,49.5,56.3,59.0,24.4,-99.9,91,65,68,30.10,29.92,5,-203,7,0.00
2013-10-17,74.8,50.7,61.4,62.0,22.0,-99.9,92,62,62,29.91,29.68,6,-241,10,0.00
2013-10-18,69.7,51.9,58.0,62.0,19.2,-99.9,87,45,40,29.98,29.67,8,-187,14,0.01
2013-10-19,64.4,48.8,52.6,55.0,19.3,-99.9,84,51,46,29.98,29.74,8,-190,12,0.00
2013-10-20,64.7,45.4,50.9,55.0,7.4,-99.9,85,39,34,30.05,29.75,7,-227,15,0.00
2013-10-21,68.2,48.6,50.9,48.0,12.9,-99.9,69,41,32,30.15,29.98,9,-190,14,0.00
2013-10-22,68.6,48.9,52.9,51.0,18.9,-99.9,77,49,49,29.98,29.74,6,-186,12,0.00
2013-10-23,54.9,34.0,46.5,39.0,-9.6,-99.9,67,38,45,29.81,29.61,8,-335,12,0.00
2013-10-24,55.6,38.6,43.0,36.0,2.5,-99.9,71,39,36,30.00,29.75,11,-211,15,0.00
2013-10-25,55.4,39.1,41.4,34.0,4.9,-99.9,69,41,37,30.22,30.00,8,-197,15,0.00
2013-10-26,56.8,41.1,42.3,35.0,6.3,-99.9,71,40,36,30.22,29.89,13,-195,17,0.00
2013-10-27,59.2,43.0,48.5,34.0,6.1,-99.9,55,36,35,30.11,29.85,10,-198,14,0.00
2013-10-28,63.3,44.2,45.8,36.0,7.1,-99.9,68,37,33,30.30,30.12,7,-201,11,0.00
2013-10-29,57.1,39.9,44.9,35.0,3.7,-99.9,61,39,40,30.41,30.31,9,-218,10,0.00
2013-10-30,61.6,44.2,47.9,51.0,14.7,-99.9,79,54,56,30.34,30.18,3,-214,8,0.00
2013-10-31,65.5,40.1,54.8,59.0,1.4,-99.9,88,54,76,30.22,29.81,6,-354,11,0.02
2013-11-1,70.3,39.9,61.3,63.0,-4.4,-99.9,89,45,58,29.80,29.55,10,-389,19,0.16
2013-11-2,69.2,46.7,56.2,58.0,9.8,-99.9,88,43,40,29.77,29.61,5,-246,11,0.00
2013-11-3,56.5,14.3,46.5,41.0,-61.4,-99.9,65,17,54,30.44,29.78,11,-716,11,0.00
2013-11-4,46.1,29.1,35.2,24.0,-18.2,-99.9,49,27,26,30.66,30.44,8,-306,13,0.00
2013-11-5,55.0,39.3,41.3,43.0,7.3,-99.9,73,49,49,30.65,30.47,4,-222,9,0.00
2013-11-6,61.4,44.3,49.6,54.0,15.2,-99.9,88,56,56,30.48,30.06,8,-219,12,0.00
2013-11-7,63.5,30.5,49.4,58.0,-19.9,-99.9,89,43,71,30.06,29.75,6,-477,17,0.13
2013-11-8,50.0,32.4,41.3,31.0,-10.5,-99.9,67,34,40,30.21,29.93,13,-292,17,0.00
2013-11-9,49.8,36.5,39.7,36.0,0.1,-99.9,64,39,38,30.29,29.99,8,-219,13,0.00
2013-11-10,60.5,40.1,44.3,40.0,4.1,-99.9,70,40,35,30.04,29.80,14,-218,20,0.00
2013-11-11,53.6,35.4,43.8,34.0,-8.9,-99.9,52,32,40,30.21,29.96,9,-298,19,0.00
2013-11-12,51.6,27.0,31.9,36.0,-12.1,-99.9,83,39,44,30.28,29.93,7,-274,18,0.01
2013-11-13,39.9,26.7,29.4,22.0,-13.9,-99.9,59,33,31,30.37,30.27,8,-256,14,0.00
2013-11-14,53.7,35.2,34.5,25.0,-9.3,-99.9,59,28,22,30.27,30.16,7,-243,16,0.00
2013-11-15,57.6,39.3,43.2,36.0,0.7,-99.9,61,36,33,30.25,30.16,8,-229,14,0.00
2013-11-16,60.0,39.5,47.0,48.0,6.1,-99.9,87,54,50,30.32,30.22,4,-254,8,0.00
2013-11-17,60.1,26.8,50.2,58.0,-26.6,-99.9,95,43,84,30.27,29.80,4,-520,6,0.07
2013-11-18,66.9,41.5,51.6,49.0,-8.0,-99.9,68,27,30,29.79,29.59,11,-317,21,0.00
2013-11-19,51.0,33.1,36.8,30.0,-5.9,-99.9,55,36,41,30.34,29.77,12,-244,23,0.00
2013-11-20,45.3,29.8,33.6,24.0,-10.9,-99.9,59,33,28,30.60,30.34,8,-243,17,0.00
2013-11-21,51.8,36.2,35.8,43.0,3.6,-99.9,74,49,52,30.61,30.39,6,-233,10,0.00
2013-11-22,57.3,38.0,50.4,50.0,3.3,-99.9,90,56,70,30.38,29.89,6,-304,12,0.03
2013-11-23,54.6,32.0,31.5,49.0,-6.4,-99.9,82,37,33,30.03,29.89,15,-241,17,0.00
2013-11-24,31.3,20.4,23.5,12.0,-20.6,-99.9,50,30,27,30.37,30.00,14,-243,26,0.00
2013-11-25,36.9,23.8,24.0,17.0,-16.4,-99.9,54,34,39,30.48,30.34,7,-258,19,0.00
2013-11-26,41.7,24.7,34.0,40.0,-17.9,-99.9,94,43,45,30.34,29.78,6,-354,10,0.31
2013-11-27,55.9,14.5,41.1,54.0,-55.2,-99.9,92,27,79,29.74,29.33,8,-683,15,0.21
2013-11-28,36.2,23.3,30.8,15.0,-21.4,-99.9,52,29,34,30.47,29.74,12,-296,17,0.00
2013-11-29,40.7,26.5,30.1,20.0,-11.0,-99.9,57,37,43,30.73,30.47,5,-241,12,0.00
2013-11-30,38.4,26.2,25.6,30.0,-8.2,-99.9,71,45,40,30.76,30.37,5,-241,9,0.00
2013-12-1,49.7,34.6,38.7,35.0,0.7,-99.9,80,47,51,30.37,30.01,4,-241,5,0.00
2013-12-2,50.0,31.9,41.8,40.0,-2.5,-99.9,85,54,57,30.00,29.88,5,-293,7,0.00
2013-12-3,54.8,35.9,41.4,38.0,1.0,-99.9,85,47,51,30.00,29.86,3,-260,7,0.00
2013-12-4,51.8,36.0,41.2,44.0,4.5,-99.9,84,55,58,30.13,30.00,4,-252,5,0.00
2013-12-5,58.7,20.0,47.8,54.0,-44.5,-99.9,95,33,83,30.12,29.94,3,-634,8,0.00
2013-12-6,51.0,13.8,44.7,47.0,-57.5,-99.9,91,26,87,30.14,29.87,5,-704,9,0.18
2013-12-7,42.2,25.4,32.2,32.0,-17.5,-99.9,81,38,47,30.51,30.09,8,-331,14,0.00
2013-12-8,33.0,14.3,30.5,22.0,-48.5,-99.9,70,25,53,30.59,30.38,7,-552,11,0.00
2013-12-9,39.7,14.0,34.0,38.0,-49.4,-99.9,94,35,89,30.36,29.95,8,-626,12,0.01
2013-12-10,34.7,11.9,32.1,32.0,-54.1,-99.9,93,31,77,30.13,29.87,13,-648,14,0.18
2013-12-11,35.1,21.5,27.0,19.0,-20.7,-99.9,61,37,44,30.33,30.14,10,-320,16,0.00
2013-12-12,29.6,19.7,23.6,17.0,-18.5,-99.9,61,35,39,30.36,30.16,9,-242,19,0.00
2013-12-13,36.5,22.8,23.9,20.0,-19.6,-99.9,56,34,42,30.32,30.13,9,-299,16,0.00
2013-12-14,34.6,11.5,24.4,23.0,-47.8,-99.9,90,35,48,30.49,29.80,10,-568,16,0.00
2013-12-15,40.1,23.4,30.5,32.0,-17.5,-99.9,91,47,61,29.84,29.48,9,-356,16,0.00
2013-12-16,33.8,21.5,26.1,23.0,-16.2,-99.9,66,37,41,30.23,29.83,11,-250,17,0.00
2013-12-17,31.7,10.9,25.9,29.0,-52.7,-99.9,91,32,49,30.23,29.93,9,-616,11,0.00
2013-12-18,38.0,23.0,26.9,25.0,-17.2,-99.9,79,43,53,30.16,29.92,11,-321,15,0.03
2013-12-19,44.6,31.0,30.5,32.0,-2.7,-99.9,72,46,53,30.18,30.03,7,-240,13,0.09
2013-12-20,52.5,36.8,42.3,45.0,0.9,-99.9,79,44,50,30.10,29.97,8,-254,13,0.00
2013-12-21,64.5,43.3,49.6,54.0,12.3,-99.9,86,56,62,30.00,29.89,10,-248,13,0.00
2013-12-22,69.9,46.0,56.0,62.0,12.8,-99.9,91,56,69,29.95,29.82,12,-282,13,0.00
2013-12-23,60.1,17.7,52.0,58.0,-51.4,-99.9,95,29,87,30.15,29.88,4,-683,17,0.38
2013-12-24,41.9,23.8,26.7,26.0,-19.6,-99.9,73,37,45,30.33,30.08,10,-334,17,0.00
2013-12-25,31.0,19.7,20.0,22.0,-19.3,-99.9,68,37,43,30.53,30.34,9,-269,17,0.00
2013-12-26,37.8,24.7,29.1,27.0,-11.2,-99.9,70,47,55,30.43,30.16,7,-284,12,0.00
2013-12-27,41.0,28.4,32.8,26.0,-8.0,-99.9,67,41,45,30.36,30.26,6,-245,14,0.00
2013-12-28,56.7,35.2,36.5,31.0,-5.4,-99.9,65,35,34,30.29,30.06,11,-261,17,0.00
2013-12-29,46.8,15.8,40.6,41.0,-52.1,-99.9,93,25,51,30.07,29.39,6,-645,9,0.76
2013-12-30,45.5,21.7,23.6,38.0,-23.1,-99.9,81,37,51,30.19,29.69,8,-364,14,0.00
2013-12-31,32.5,21.6,22.8,23.0,-13.7,-99.9,71,43,45,30.28,30.07,9,-248,16,0.00
2014-1-1,33.4,22.5,26.2,21.0,-16.5,-99.9,64,40,46,30.41,30.25,11,-290,12,0.00
2014-1-2,33.3,9.3,25.6,23.0,-58.8,-99.9,85,27,64,30.25,29.66,12,-661,18,0.00